SP3PDK-1 Weather Reports


time (UTC)temp
F
wind
direction
speed
knots
gust
knots
rain 1hr
in
rain 24hr
in
rain mn
in
humidity
%
barometer
mb
20260508043417 54 0.0 0.0 0.00 0.00 0.00 78 1017.7
20260508042415 54 0.0 0.0 0.00 0.00 0.00 78 1017.6
20260508041418 55 0.0 0.0 0.00 0.00 0.00 77 1017.6
20260508034413 55 0.0 0.0 0.00 0.00 0.00 80 1017.4
20260508033418 54 0.0 0.0 0.00 0.00 0.00 81 1017.4
20260508031413 53 0.0 0.0 0.00 0.00 0.00 81 1017.2
20260508030415 55 0.0 0.0 0.00 0.00 0.00 79 1017.0
20260508025414 55 0.0 0.0 0.00 0.00 0.00 78 1017.0
20260508024419 55 0.0 0.0 0.00 0.00 0.00 79 1017.0
20260508023417 54 0.0 0.0 0.00 0.00 0.00 78 1017.0
20260508022413 54 0.0 0.0 0.00 0.00 0.00 79 1016.9
20260508021414 55 0.0 0.0 0.00 0.00 0.00 82 1017.0
20260508020413 54 0.0 0.0 0.00 0.00 0.00 86 1016.9
20260508015417 55 0.0 0.0 0.00 0.00 0.00 86 1016.9
20260508014418 54 0.0 0.0 0.00 0.00 0.00 91 1016.8
20260508012414 55 0.0 0.0 0.00 0.00 0.00 87 1016.8
20260508011415 54 0.0 0.0 0.00 0.00 0.00 91 1016.8
20260508010418 54 0.0 0.0 0.00 0.00 0.00 90 1016.8
20260508005416 54 0.0 0.0 0.00 0.00 0.00 91 1016.8
20260508003418 54 0.0 0.0 0.00 0.00 0.00 90 1016.9
20260508002413 54 0.0 0.0 0.00 0.00 0.00 91 1016.8
20260508001417 53 0.0 0.0 0.00 0.00 0.00 92 1016.9
20260508000419 54 0.0 0.0 0.00 0.00 0.00 91 1016.9
20260507235417 54 0.0 0.0 0.00 0.00 0.00 88 1016.8
20260507234415 54 0.0 0.0 0.00 0.00 0.00 90 1016.8
20260507233416 54 0.0 0.0 0.00 0.00 0.00 90 1016.8
20260507232417 54 0.0 0.0 0.00 0.00 0.00 89 1016.7
20260507231415 55 0.0 0.0 0.00 0.00 0.00 88 1016.8
20260507230416 54 0.0 0.0 0.00 0.00 0.00 89 1016.9
20260507225414 55 0.0 0.0 0.00 0.00 0.00 88 1016.9
20260507224414 55 0.0 0.0 0.00 0.00 0.00 89 1016.8
20260507223419 56 0.0 0.0 0.00 0.00 0.00 87 1016.8
20260507222417 55 0.0 0.0 0.00 0.00 0.00 87 1016.7
20260507221413 55 0.0 0.0 0.00 0.00 0.00 88 1016.8
20260507220417 55 0.0 0.0 0.00 0.00 0.00 86 1016.6
20260507215418 55 0.0 0.0 0.00 0.00 0.00 89 1016.7
20260507212418 56 0.0 0.0 0.00 0.00 0.00 85 1016.5
20260507211416 56 0.0 0.0 0.00 0.00 0.00 86 1016.4
20260507210415 55 0.0 0.0 0.00 0.00 0.00 87 1016.3
20260507205418 56 0.0 0.0 0.00 0.00 0.00 86 1016.3
20260507204417 56 0.0 0.0 0.00 0.00 0.00 85 1016.2
20260507203416 56 0.0 0.0 0.00 0.00 0.00 84 1016.2
20260507202417 56 0.0 0.0 0.00 0.00 0.00 83 1016.2
20260507200413 56 0.0 0.0 0.00 0.00 0.00 83 1016.0
20260507195415 56 0.0 0.0 0.00 0.00 0.00 83 1015.9
20260507194413 57 0.0 0.0 0.00 0.00 0.00 81 1015.8
20260507193413 56 0.0 0.0 0.00 0.00 0.00 85 1015.8
20260507192414 56 0.0 0.0 0.00 0.00 0.00 85 1015.7
20260507191418 54 0.0 0.0 0.00 0.00 0.00 90 1015.4
20260507185419 55 0.0 0.0 0.00 0.00 0.00 88 1015.3
20260507183418 55 0.0 0.0 0.00 0.00 0.00 87 1015.2
20260507182418 55 0.0 0.0 0.00 0.00 0.00 87 1015.2
20260507181418 55 0.0 0.0 0.00 0.00 0.00 86 1015.0
20260507180413 56 0.0 0.0 0.00 0.00 0.00 84 1015.1
20260507175415 55 0.0 0.0 0.00 0.00 0.00 84 1015.1
20260507174413 55 0.0 0.0 0.00 0.00 0.00 85 1014.9
20260507173419 55 0.0 0.0 0.00 0.00 0.00 88 1014.7
20260507171415 55 0.0 0.0 0.00 0.00 0.00 86 1014.3
20260507170415 56 0.0 0.0 0.00 0.00 0.00 87 1014.0
20260507165414 56 0.0 0.0 0.00 0.00 0.00 87 1013.8
20260507163418 55 0.0 0.0 0.00 0.00 0.00 87 1013.8
20260507162417 56 0.0 0.0 0.00 0.00 0.00 89 1013.6
20260507161414 56 0.0 0.0 0.00 0.00 0.00 87 1013.5
20260507160416 56 0.0 0.0 0.00 0.00 0.00 87 1013.6
20260507155414 55 0.0 0.0 0.00 0.00 0.00 87 1013.5
20260507154414 56 0.0 0.0 0.00 0.00 0.00 88 1013.5
20260507153418 57 0.0 0.0 0.00 0.00 0.00 86 1013.5
20260507151414 56 0.0 0.0 0.00 0.00 0.00 90 1013.5
20260507150417 57 0.0 0.0 0.00 0.00 0.00 86 1013.5
20260507145417 57 0.0 0.0 0.00 0.00 0.00 88 1013.6
20260507144419 58 0.0 0.0 0.00 0.00 0.00 84 1013.5
20260507143415 56 0.0 0.0 0.00 0.00 0.00 88 1013.4
20260507142413 57 0.0 0.0 0.00 0.00 0.00 91 1013.3
20260507140414 56 0.0 0.0 0.00 0.00 0.00 95 1013.3
20260507135413 56 0.0 0.0 0.00 0.00 0.00 93 1013.4
20260507133414 56 0.0 0.0 0.00 0.00 0.00 93 1013.6
20260507132417 56 0.0 0.0 0.00 0.00 0.00 95 1013.6
20260507131418 56 0.0 0.0 0.00 0.00 0.00 95 1013.5
20260507130418 56 0.0 0.0 0.00 0.00 0.00 96 1013.2
20260507125413 55 0.0 0.0 0.00 0.00 0.00 95 1013.2
20260507124418 56 0.0 0.0 0.00 0.00 0.00 94 1013.0
20260507123413 56 0.0 0.0 0.00 0.00 0.00 94 1013.0
20260507122414 56 0.0 0.0 0.00 0.00 0.00 95 1012.8
20260507121414 57 0.0 0.0 0.00 0.00 0.00 92 1012.7
20260507120414 56 0.0 0.0 0.00 0.00 0.00 91 1012.8
20260507114413 56 0.0 0.0 0.00 0.00 0.00 90 1012.7
20260507113417 57 0.0 0.0 0.00 0.00 0.00 92 1012.5
20260507112413 56 0.0 0.0 0.00 0.00 0.00 93 1012.5
20260507111414 56 0.0 0.0 0.00 0.00 0.00 93 1012.5
20260507110413 56 0.0 0.0 0.00 0.00 0.00 93 1012.5
20260507104414 57 0.0 0.0 0.00 0.00 0.00 90 1012.3
20260507102414 58 0.0 0.0 0.00 0.00 0.00 92 1012.0
20260507101413 57 0.0 0.0 0.00 0.00 0.00 91 1011.9
20260507100417 57 0.0 0.0 0.00 0.00 0.00 91 1011.9
20260507095418 57 0.0 0.0 0.00 0.00 0.00 92 1011.8
20260507094414 56 0.0 0.0 0.00 0.00 0.00 91 1011.7
20260507093414 56 0.0 0.0 0.00 0.00 0.00 93 1011.6
20260507092414 57 0.0 0.0 0.00 0.00 0.00 94 1011.4
20260507090417 56 0.0 0.0 0.00 0.00 0.00 96 1011.2
20260507085419 56 0.0 0.0 0.00 0.00 0.00 96 1011.0
20260507084413 56 0.0 0.0 0.00 0.00 0.00 95 1011.0
20260507083413 56 0.0 0.0 0.00 0.00 0.00 94 1011.1
20260507082417 56 0.0 0.0 0.00 0.00 0.00 93 1010.8
20260507081419 56 0.0 0.0 0.00 0.00 0.00 93 1010.7
20260507080415 55 0.0 0.0 0.00 0.00 0.00 94 1010.5
20260507075413 56 0.0 0.0 0.00 0.00 0.00 95 1010.5
20260507074413 55 0.0 0.0 0.00 0.00 0.00 95 1010.5
20260507072417 55 0.0 0.0 0.00 0.00 0.00 96 1010.3
20260507071418 55 0.0 0.0 0.00 0.00 0.00 96 1010.2
20260507070413 55 0.0 0.0 0.00 0.00 0.00 96 1010.0
20260507065414 56 0.0 0.0 0.00 0.00 0.00 97 1009.7
20260507064414 55 0.0 0.0 0.00 0.00 0.00 97 1009.7
20260507063414 54 0.0 0.0 0.00 0.00 0.00 98 1009.7
20260507062413 54 0.0 0.0 0.00 0.00 0.00 10 1009.5
20260507061417 54 0.0 0.0 0.00 0.00 0.00 99 1009.5
20260507060413 54 0.0 0.0 0.00 0.00 0.00 10 1009.5
20260507055418 54 0.0 0.0 0.00 0.00 0.00 10 1009.4
20260507054417 54 0.0 0.0 0.00 0.00 0.00 99 1009.2
20260507053417 54 0.0 0.0 0.00 0.00 0.00 10 1009.1
20260507051415 55 0.0 0.0 0.00 0.00 0.00 10 1009.0
20260507045413 56 0.0 0.0 0.00 0.00 0.00 10 1008.8
20260507044418 55 0.0 0.0 0.00 0.00 0.00 10 1008.8